DECAYED

STARLINK-2288, 48034 (Decayed)

Orbit data source: Space-Track

STARLINK-2288, 48034 was a payload satellite owned by SpaceX/Seattle (US) in LEO that was launched on Wed, 24 Mar 2021 UTC via an FALCON 9 launch vehicle from the Air Force Eastern Test Range (AFETR). Payload-class satellites include a variety of spacecraft equipped with specific instruments for various scientific and technological missions. These include communications satellites like Starlink; space stations such as the ISS; scientific satellites like the Hubble; Earth observation satellites from companies like Planet Labs, Umbra, and HawkEye 360; GPS; miniature CubeSats for education and research; and military/defense satellites.

Not visible in the next 10 days
Identifier
48034, 2021-024BK
Orbit
Decayed
Country
Flag of USUS
Related business
Manufacturer
SpaceX/Seattle
Mission
Decayed Commercial Communications
Bus & Motor
STARLINK, Unknown motor
Mass
260 kg wet, ~248 kg dry
Launch date (UTC)
2021-03-24 (5 years ago)
Launch vehicle
FALCON 9
Launch site
Air Force Eastern Test Range (AFETR)
Object type
Payload
Rocket body
Debris
Shape & HBR
Box + 1 Pan, 10.1 m
Radar Cross Section
13.562 m², Large (>1 m²)

Expand to show TLE details & history
Last TLE update: 1 year ago

TLE from 1 year ago
0 STARLINK-2288
1 48034U 21024BK  25112.48443655  .11883731  12335-4  99764-3 0  9996
2 48034  53.0341 308.6090 0007779 273.7289 177.6923 16.38723877226031
Epoch: 2025-04-22T11:37Z
TLE epoch observation values (Epoch: 2025-04-22T11:37:35.317Z)
Latitude
53.16902°
Longitude
15.79909°
Altitude
180.762 km
Speed
7.801 km/s
True Right ascension
02h 43m 55s
True Declination
52° 59' 21"
Sunlit
Object was in daylight at epoch
Visualization orbit readout
Latitude
Unknown
Longitude
Unknown
Altitude
Unknown
Speed
Unknown
Apparent Right ascension
Unknown
Apparent Declination
Unknown
Sunlit
N/A
Visualization observer readout
Local Sidereal Time
18:57:46
Azimuth
Unknown
Elevation
Unknown
Doppler factor
Unknown
Orbital elements
Apogee altitude
174.582 km
Perigee altitude
164.395 km
Semi-major axis
6,547.626 km
Eccentricity
0.00078
Inclination
53.0341°
RAAN
308.609°
Arg. of periapsis
273.7289°
True anomaly
177.69589°
Mean anomaly
177.6923°
Eccentric anomaly
177.69409°
Mean motion
4.09654 °/min
Orbital period
87.88 mins
BSTAR
0.00099764
Loading maneuver chart data...
Computing Atmospheric mass density...

Documentation

Showing up to 5 results
|